COSMOS 2158

导读

COSMOS 2158是独立国家联合体(CIS)继承苏联航天遗产后,于1991年9月28日08时发射的“宇宙”系列卫星,该系列是苏联/俄罗斯规模最大的军用卫星家族。作为冷战末期的产物,它大概率承担空间侦察、电子情报收集或轨道技术验证任务,延续了“宇宙”系列支撑战略监测的传统,是后苏联时代早期航天活动的重要见证。

Basic Information
目录编号:
21729
目录名称:
COSMOS 2158
国际标识:
1991-068B
轨道中心:
EARTH
卫星名称:
COSMOS 2158
卫星全名:
--
卫星状态:
在轨 (已飞行12769 天)
发射日期:
1991-09-28 UTC
国别 :
俄罗斯(独联体) (CIS)
星等 :
--
This satellite is enrolled in the Space Conjunction Data Service (SCDS) and the current flight risk assessment level is: No High Risk
Orbit Information
数据来源 国际轨道数据 AOE轨道数据
星历时间 2026-09-13T08:02:59+0800
6小时前
查看轨道信息
2026-09-09T23:00:00+0800
3天前
查看轨道信息
半长轴 7784.32km 7784.336km
偏心率 0.0004625 0.0003865
轨道倾角 82.579° 82.580°
近地点辐角 201.412° 224.331°
升交点赤经 254.955° 257.120°
平近点角 186.389° 283.204°
近地点 1402.582km 1403.19km
远地点 1409.784km 1409.208km
周期 113.918分钟 113.918分钟
每日圈数 12.640719 12.64068
Detailed Information
使用方式:
暂无
2D Orbit Map
3D Orbit Map
Orbit Altitude Analysis Chart
Orbit Inclination Analysis Chart
Orbit Comprehensive Analysis Chart
View Comprehensive Chart
Miss Distance Evolution Trend with All Objects
Collision Probability Evolution Trend with All Objects